Location: Malvern Link
(52.1333°N, 2.3000°W)
Time: 16:09:22
(UTC+00:00)

Cosmos 1634 Rocket - Pass Details

Date: 04 December 2021
Orbit: 959 x 993 km, 82.9° (Epoch: 23 January)

Event Time Altitude Azimuth Distance (km) Brightness Sun altitude
Enters shadow 05:45:01 - 345° (NNW) 3,734 6.8 -19.6°
Exits shadow 05:46:48 - 342° (NNW) 3,091 6.3 -19.3°
Reaches altitude 10° 05:47:46 10° 339° (NNW) 2,754 6.0 -19.1°
Maximum altitude 05:53:33 40° 272° (W) 1,410 4.3 -18.3°
Drops below altitude 10° 05:59:16 10° 205° (SSW) 2,714 6.2 -17.4°
Sets 06:01:54 0° 198° (SSW) 3,652 7.0 -17.0°
